Regional Weather Roundup
Issued by NWS Albany, NY

Home | Current Version | Previous Version | Graphics & Text | Print | Product List | Glossary Off
Versions: 1 2 3 4 5 6 7 8 9 10 11 12 13 14 15 16 17 18 19 20 21 22 23 24 25 26 27

000
ASUS41 KALY 261310
RWRALY

NEW YORK STATE HOURLY WEATHER ROUNDUP
NATIONAL WEATHER SERVICE ALBANY NY
900 AM EDT THU APR 26 2018

NOTE: "FAIR" INDICATES FEW OR NO CLOUDS BELOW 12,000 FEET WITH NO
SIGNIFICANT WEATHER AND/OR NO OBSTRUCTIONS TO VISIBILITY.

NYZ032-033-038>043-046>054-057>066-NYZ062>081-082-084-261400-
EAST


CITY           SKY/WX    TMP DP  RH WIND       PRES   REMARKS
ALBANY         PTSUNNY   51  43  74 W9        29.69R
GLENS FALLS    CLOUDY    49  45  86 W9        29.64R
POUGHKEEPSIE   PTSUNNY   56  48  74 W12       29.66S
NEWBURGH       MOSUNNY   55  48  76 W14       29.69R
MONTGOMERY     FAIR      55  43  63 NW13G20   29.69R
WHITE PLAINS   PTSUNNY   56  46  69 NW14      29.67R
ISLIP          PTSUNNY   59  51  75 NW15      29.66R
NEW YORK CITY  FAIR      57  46  66 W18G25    29.69R
CENTRAL PARK   FAIR      57  43  59 VRB7G17   29.72R
$$

NYZ005>009-017-018-044>046-055-056-261400-
CENTRAL


CITY           SKY/WX    TMP DP  RH WIND       PRES   REMARKS
FULTON         LGT RAIN  41  39  93 W14       29.75R
SYRACUSE       CLOUDY    41  40  96 SW18G24   29.75R
ROME           CLOUDY    42  40  92 W13       29.75R FOG
ELMIRA         CLOUDY    45  37  73 W16       29.79R
BINGHAMTON     CLOUDY    42  37  82 W15       29.73S
MONTICELLO     CLOUDY    45  40  82 W13G18    29.72R
$$

NYZ026>034-041>043-087-261400-
NORTH


CITY           SKY/WX    TMP DP  RH WIND       PRES   REMARKS
WATERTOWN      LGT RAIN  40  40 100 SW15G23   29.70R VSB 3/4 WCI  32
FORT DRUM      NOT AVBL
OGDENSBURG     CLOUDY    44  43  98 SW9       29.64R FOG
MASSENA        CLOUDY    44  44 100 SW14G22   29.64R FOG
SARANAC LAKE   CLOUDY    40  40 100 SW12      29.60S FOG     WCI  33
PLATTSBURGH    RAIN      51  49  92 VRB3      29.57S FOG
$$

NYZ001>004-010>016-019>021-085-261400-
WEST


CITY           SKY/WX    TMP DP  RH WIND       PRES   REMARKS
NIAGARA FALLS  CLOUDY    44  35  70 W14       29.85R
BUFFALO        CLOUDY    39  37  92 SW14      29.85R WCI  31
DUNKIRK        CLOUDY    39  34  82 SW13      29.91R WCI  31
JAMESTOWN      CLOUDY    36  34  92 W12       29.88S WCI  28
WELLSVILLE     CLOUDY    38  36  92 W10       29.82R WCI  31
ROCHESTER      LGT RAIN  41  41 100 W18G28    29.80R
PENN YAN       CLOUDY    45  37  73 W14       29.78R
$$

             KEY
       WCI = WIND CHILL INDEX
       VSB = VISIBILITY
       HX  = HEAT INDEX
$$




USA.gov is the U.S. government's official web portal to all federal, state and local government web resources and services.